Regional Weather Roundup
Issued by NWS

Home | Current Version | Previous Version | Text Only | Print | Product List | Glossary Off
Versions: 1 2 3 4 5 6 7 8 9 10 11 12 13 14 15 16 17 18 19 20 21 22 23 24 25 26 27 28 29 30 31 32 33 34 35 36 37 38 39 40 41 42 43 44 45 46 47 48 49 50

000
ASUS43 KLSX 232059
RWRMO

WEATHER SUMMARY FOR MISSOURI
NATIONAL WEATHER SERVICE SPRINGFIELD MO
400 PM CDT SUN APR 23 2017

NOTE: "FAIR" INDICATES FEW OR NO CLOUDS BELOW 12,000 FEET WITH NO
       SIGNIFICANT WEATHER AND/OR OBSTRUCTIONS TO VISIBILITY.
       CURRENT SKY AND/OR WEATHER CONDITIONS ARE NOT AVAILABLE FOR
       CHILLICOTHE AND FARMINGTON.

MOZ001>031-035>038-043-044-053-054-232200-
...NORTHERN AND WESTERN MISSOURI...

CITY           SKY/WX    TMP DP  RH WIND       PRES   REMARKS
KANSAS CTY INT MOSUNNY   71  33  24 VRB3      30.08F
KANSAS C DTWN  SUNNY     71  28  20 VRB5      30.07F
LEE`S SUMMIT   SUNNY     69  29  22 CALM      30.08F
ST JOSEPH      SUNNY     71  32  23 SW7       30.06F
CHILLICOTHE      N/A     72  32  23 VRB3      30.07F
KIRKSVILLE     SUNNY     71  32  23 E6        30.06F

$$
MOZ066>068-077>081-088>096-101>105-232200-
...SOUTHWEST MISSOURI...

CITY           SKY/WX    TMP DP  RH WIND       PRES   REMARKS
SPRINGFIELD    SUNNY     68  34  28 N9        30.05F
JOPLIN         SUNNY     67  41  38 N6        30.09F
BRANSON        SUNNY     66  34  30 N10       30.05F

$$
MOZ032>034-039>042-045>050-055>058-069>072-232200-
...CENTRAL MISSOURI...

CITY           SKY/WX    TMP DP  RH WIND       PRES   REMARKS
COLUMBIA       SUNNY     71  31  22 N7        30.06F
JEFFERSON CITY SUNNY     73  29  19 N10       30.05F
ROLLA          SUNNY     69  36  29 N10       30.03F
OSAGE BEACH    SUNNY     70  31  23 E12       30.05F

$$
MOZ051-052-059>065-232200-
...EAST CENTRAL MISSOURI...

CITY           SKY/WX    TMP DP  RH WIND       PRES   REMARKS
ST LOUIS INTL  SUNNY     73  32  22 N14G23    30.03F
SPIRIT OF STL  SUNNY     72  30  21 N12G21    30.02F
ST CHARLES     SUNNY     72  32  23 N9G16     30.02F

$$
MOZ072>076-082>087-097>100-106>115-232200-
...SOUTH CENTRAL AND SOUTHEAST MISSOURI...

CITY           SKY/WX    TMP DP  RH WIND       PRES   REMARKS
CAPE GIRARDEAU SUNNY     68  38  33 N17G31    29.94F
POPLAR BLUFF   SUNNY     69  39  33 NE14      29.93F
WEST PLAINS    SUNNY     70  33  25 NE14G20   30.01F

$$




USA.gov is the U.S. government's official web portal to all federal, state and local government web resources and services.